GW5810 Weather Reports


time (UTC)temp
F
wind
direction
speed
knots
gust
knots
rain 1hr
in
rain 24hr
in
rain mn
in
humidity
%
barometer
mb
20260510204815 43 0 0.0 0.9 0.00 0.04 0.04 73 1016.0
20260510204634 43 0 0.0 0.9 0.00 0.04 0.04 73 1016.1
20260510204132 43 0 0.0 0.9 0.00 0.04 0.04 73 1015.9
20260510203632 43 0 0.0 0.9 0.00 0.04 0.04 73 1016.0
20260510203129 43 0 0.0 1.7 0.00 0.04 0.04 72 1016.1
20260510202316 44 0 0.0 1.7 0.00 0.04 0.04 71 1016.1
20260510201815 44 0 0.0 2.6 0.00 0.04 0.04 71 1016.0
20260510201311 44 312 0.0 2.6 0.00 0.04 0.04 70 1016.0
20260510200812 44 284 0.0 1.7 0.00 0.04 0.04 70 1016.2
20260510200311 45 0 0.0 2.6 0.00 0.04 0.04 69 1016.3
20260510195812 45 0 0.0 2.6 0.00 0.04 0.04 69 1016.2
20260510195313 46 42 0.9 4.3 0.00 0.04 0.04 68 1016.1
20260510194825 46 0 0.9 4.3 0.00 0.04 0.04 67 1016.0
20260510194311 46 325 0.9 3.5 0.00 0.04 0.04 66 1016.2
20260510194118 46 312 0.9 4.3 0.00 0.04 0.04 65 1016.1
20260510193306 47 21 0.9 4.3 0.00 0.04 0.04 65 1016.0
20260510192807 47 304 0.9 7.0 0.00 0.04 0.04 64 1016.1
20260510192307 47 295 0.9 7.0 0.00 0.04 0.04 64 1016.1
20260510191816 47 298 1.7 6.1 0.00 0.04 0.04 63 1016.1
20260510191306 47 54 1.7 5.2 0.00 0.04 0.04 64 1016.1
20260510190806 48 304 1.7 7.0 0.00 0.04 0.04 63 1016.0
20260510190307 48 82 1.7 7.8 0.00 0.04 0.04 63 1016.0
20260510185805 48 81 2.6 7.8 0.00 0.04 0.04 63 1016.1
20260510185306 48 324 2.6 8.7 0.00 0.04 0.04 62 1016.1
20260510184811 48 60 2.6 8.7 0.00 0.04 0.04 61 1016.0
20260510184305 49 200 2.6 8.7 0.00 0.04 0.04 61 1016.1
20260510183805 49 26 2.6 8.7 0.00 0.04 0.04 61 1016.2
20260510183305 49 13 3.5 8.7 0.00 0.04 0.04 60 1016.1
20260510182806 49 91 2.6 8.7 0.00 0.04 0.04 60 1016.0
20260510182306 50 358 2.6 8.7 0.00 0.04 0.04 60 1015.8
20260510181805 50 26 2.6 8.7 0.00 0.04 0.04 60 1016.0
20260510181306 50 333 2.6 8.7 0.00 0.04 0.04 60 1015.8
20260510180809 50 2 2.6 8.7 0.00 0.04 0.04 59 1015.8
20260510180306 51 41 2.6 9.6 0.00 0.04 0.04 59 1015.8
20260510175805 51 37 3.5 9.6 0.00 0.04 0.04 59 1015.5
20260510175317 51 14 3.5 12.2 0.00 0.04 0.04 59 1015.3
20260510174804 51 329 3.5 12.2 0.00 0.04 0.04 59 1015.5
20260510174653 51 82 2.6 7.8 0.00 0.04 0.04 59 1015.8
20260510173805 52 69 3.5 9.6 0.00 0.04 0.04 58 1015.6
20260510173307 52 59 3.5 10.4 0.00 0.04 0.04 59 1015.2
20260510172805 52 328 3.5 10.4 0.00 0.04 0.04 60 1015.4
20260510172307 52 299 3.5 9.6 0.00 0.04 0.04 59 1015.5
20260510171805 52 54 3.5 9.6 0.00 0.04 0.04 60 1015.4
20260510171305 52 72 2.6 9.6 0.00 0.04 0.04 60 1015.3
20260510171118 52 358 2.6 8.7 0.00 0.04 0.04 60 1015.4
20260510170318 52 351 3.5 12.2 0.00 0.04 0.04 61 1015.9
20260510165806 52 352 3.5 12.2 0.00 0.04 0.04 60 1015.8
20260510165307 51 59 3.5 10.4 0.01 0.04 0.04 60 1015.5
20260510164805 51 341 3.5 10.4 0.01 0.04 0.04 61 1016.4
20260510164305 51 78 3.5 10.4 0.01 0.04 0.04 59 1016.7
20260510163805 52 25 3.5 9.6 0.01 0.04 0.04 61 1016.6
20260510163311 53 98 3.5 9.6 0.01 0.04 0.04 61 1016.3
20260510162806 53 8 3.5 11.3 0.01 0.04 0.04 58 1015.5
20260510162306 53 47 3.5 11.3 0.01 0.04 0.04 59 1015.0
20260510161811 53 51 2.6 9.6 0.01 0.04 0.04 62 1016.7
20260510161306 53 84 3.5 9.6 0.01 0.04 0.04 61 1016.6
20260510160807 54 69 3.5 10.4 0.01 0.04 0.04 59 1016.2
20260510160306 55 26 3.5 10.4 0.01 0.04 0.04 57 1015.2
20260510160134 55 351 4.3 10.4 0.01 0.04 0.04 58 1015.2
20260510155306 55 325 4.3 10.4 0.00 0.03 0.03 57 1014.9
20260510154807 55 86 3.5 10.4 0.00 0.03 0.03 57 1014.9
20260510154307 55 44 3.5 11.3 0.00 0.03 0.03 56 1014.9
20260510153806 54 98 3.5 11.3 0.00 0.03 0.03 57 1014.8
20260510153308 53 338 2.6 8.7 0.00 0.03 0.03 58 1016.2
20260510153114 53 46 3.5 9.6 0.00 0.03 0.03 61 1016.2
20260510152300 53 6 3.5 9.6 0.00 0.03 0.03 60 1016.8
20260510151800 54 56 3.5 8.7 0.00 0.03 0.03 59 1016.7
20260510151300 54 71 3.5 8.7 0.00 0.03 0.03 59 1015.8
20260510151146 53 63 3.5 10.4 0.01 0.03 0.03 59 1015.7
20260510150300 53 72 3.5 10.4 0.01 0.03 0.03 61 1015.5
20260510150109 53 140 3.5 9.6 0.01 0.03 0.03 63 1016.3
20260510145300 53 8 3.5 8.7 0.01 0.03 0.03 63 1016.8
20260510144801 54 63 3.5 9.6 0.03 0.03 0.03 63 1016.6
20260510144357 53 299 3.5 9.6 0.03 0.03 0.03 62 1015.7
20260510143258 54 26 3.5 13.0 0.03 0.03 0.03 61 1016.5
20260510142759 53 11 3.5 10.4 0.03 0.03 0.03 61 1016.8
20260510142354 54 47 3.5 10.4 0.03 0.03 0.03 61 1017.0
20260510141629 55 328 4.3 11.3 0.03 0.03 0.02 60 1015.9
20260510140759 55 96 3.5 9.6 0.02 0.02 0.02 62 1015.9
20260510140300 55 67 3.5 10.4 0.02 0.02 0.02 61 1017.2
20260510135801 55 59 4.3 13.0 0.02 0.02 0.02 61 1015.5
20260510135300 55 349 4.3 13.0 0.02 0.02 0.01 62 1015.8
20260510134800 55 83 4.3 13.0 0.00 0.00 0.00 61 1016.2
20260510134259 55 94 4.3 11.3 0.00 0.00 0.00 60 1015.9
20260510133758 55 74 4.3 11.3 0.00 0.00 0.00 59 1016.2
20260510133300 55 353 3.5 9.6 0.00 0.00 0.00 60 1015.1
20260510132757 54 36 3.5 9.6 0.00 0.00 0.00 59 1016.4
20260510132257 54 73 3.5 9.6 0.00 0.00 0.00 63 1015.9
20260510131757 54 186 3.5 8.7 0.00 0.00 0.00 63 1016.9
20260510131250 54 39 2.6 8.7 0.00 0.00 0.00 63 1017.1
20260510130749 54 334 3.5 11.3 0.00 0.00 0.00 62 1016.7
20260510130250 54 265 4.3 11.3 0.00 0.00 0.00 62 1017.4
20260510125750 55 61 4.3 10.4 0.00 0.00 0.00 63 1017.3
20260510125251 55 24 4.3 10.4 0.00 0.00 0.00 61 1015.7
20260510124750 54 74 3.5 9.6 0.00 0.00 0.00 63 1016.6
20260510124744 54 79 3.5 9.6 0.00 0.00 0.00 63 1016.7
20260510123248 54 108 4.3 11.3 0.00 0.00 0.00 64 1017.2
20260510122749 55 35 4.3 13.0 0.00 0.00 0.00 64 1016.8
20260510122247 54 268 4.3 13.0 0.00 0.00 0.00 65 1016.5
20260510121746 54 63 4.3 10.4 0.00 0.00 0.00 66 1017.4
20260510121246 55 286 3.5 10.4 0.00 0.00 0.00 65 1017.2
20260510120746 55 341 3.5 10.4 0.00 0.00 0.00 64 1015.5
20260510120248 54 315 3.5 11.3 0.00 0.00 0.00 62 1016.6
20260510115745 54 8 3.5 11.3 0.00 0.00 0.00 62 1017.1
20260510115340 54 109 3.5 11.3 0.00 0.00 0.00 67 1016.3
20260510114245 54 3 3.5 11.3 0.00 0.00 0.00 64 1017.0
20260510113745 53 325 3.5 11.3 0.00 0.00 0.00 65 1015.9
20260510113246 53 349 3.5 9.6 0.00 0.00 0.00 67 1017.4
20260510112745 53 82 3.5 9.6 0.00 0.00 0.00 69 1017.4
20260510112244 53 64 3.5 9.6 0.00 0.00 0.00 68 1017.6
20260510111745 53 318 3.5 9.6 0.00 0.00 0.00 69 1017.9
20260510111244 53 105 3.5 9.6 0.00 0.00 0.00 68 1018.2
20260510110840 53 53 3.5 8.7 0.00 0.00 0.00 67 1017.8
20260510105744 53 79 3.5 9.6 0.00 0.00 0.00 70 1017.7
20260510105245 53 62 3.5 10.4 0.00 0.00 0.00 71 1018.1
20260510104745 53 63 3.5 10.4 0.00 0.00 0.00 71 1017.9
20260510104245 53 5 3.5 8.7 0.00 0.00 0.00 70 1017.6
20260510103745 53 67 3.5 10.4 0.00 0.00 0.00 72 1017.3
20260510103244 53 341 4.3 11.3 0.00 0.00 0.00 72 1017.9
20260510102747 53 79 3.5 11.3 0.00 0.00 0.00 71 1017.7
20260510102241 53 7 3.5 10.4 0.00 0.00 0.00 72 1017.1
20260510101740 52 70 3.5 10.4 0.00 0.00 0.00 72 1017.6
20260510101241 52 81 3.5 8.7 0.00 0.00 0.00 73 1018.2
20260510100740 52 86 3.5 9.6 0.00 0.00 0.00 73 1018.2
20260510100240 52 298 3.5 10.4 0.00 0.00 0.00 74 1017.9
20260510095740 52 52 2.6 12.2 0.00 0.00 0.00 75 1018.1
20260510095240 52 321 3.5 12.2 0.00 0.00 0.00 75 1018.0
20260510094740 52 18 3.5 11.3 0.00 0.00 0.00 76 1017.9
20260510094240 51 151 3.5 11.3 0.00 0.00 0.00 78 1017.9
20260510093741 51 3 2.6 8.7 0.00 0.00 0.00 81 1018.2
20260510093240 50 356 2.6 11.3 0.00 0.00 0.00 83 1018.6
20260510092740 51 29 3.5 11.3 0.00 0.00 0.00 82 1018.9
20260510092242 51 145 3.5 11.3 0.00 0.00 0.00 80 1019.1
20260510091740 51 10 3.5 11.3 0.00 0.00 0.00 78 1018.7
20260510091240 52 331 3.5 10.4 0.00 0.00 0.00 78 1018.5
20260510090742 52 7 3.5 10.4 0.00 0.00 0.00 78 1018.4
20260510090242 51 346 3.5 8.7 0.00 0.00 0.00 79 1018.2
20260510085741 51 48 3.5 11.3 0.00 0.00 0.00 79 1018.3
20260510085239 51 8 3.5 11.3 0.00 0.00 0.00 80 1018.6
20260510084739 51 353 2.6 9.6 0.00 0.00 0.00 80 1018.8
20260510084553 51 323 3.5 9.6 0.00 0.00 0.00 80 1018.7
20260510083740 51 334 2.6 9.6 0.00 0.00 0.00 80 1018.7
20260510083239 51 73 2.6 8.7 0.00 0.00 0.00 81 1018.7
20260510082738 51 90 2.6 9.6 0.00 0.00 0.00 82 1018.8
20260510082551 51 76 2.6 9.6 0.00 0.00 0.00 82 1018.9
20260510081735 50 64 2.6 11.3 0.00 0.00 0.00 82 1018.9
20260510081549 50 17 2.6 11.3 0.00 0.00 0.00 82 1019.0
20260510080734 50 20 3.5 11.3 0.00 0.00 0.00 82 1019.0
20260510080233 50 14 3.5 11.3 0.00 0.00 0.00 82 1018.8
20260510075735 50 27 3.5 9.6 0.00 0.00 0.00 83 1018.8
20260510075235 50 83 3.5 9.6 0.00 0.00 0.00 84 1018.8
20260510074834 50 38 3.5 9.6 0.00 0.00 0.00 84 1018.8
20260510073736 50 38 2.6 12.2 0.00 0.00 0.00 85 1018.8
20260510073235 50 62 3.5 12.2 0.00 0.00 0.00 85 1018.6
20260510072732 50 67 3.5 11.3 0.00 0.00 0.00 85 1018.8
20260510072233 50 309 3.5 11.3 0.00 0.00 0.00 86 1018.6
20260510071733 50 52 3.5 11.3 0.00 0.00 0.00 86 1018.6
20260510071231 50 284 3.5 9.6 0.00 0.00 0.00 86 1018.6
20260510070731 50 158 3.5 9.6 0.00 0.00 0.00 86 1018.5
20260510070231 50 52 3.5 9.6 0.00 0.00 0.00 86 1018.4
20260510065730 50 347 3.5 8.7 0.00 0.00 0.00 86 1018.5
20260510065231 50 73 3.5 9.6 0.00 0.00 0.00 87 1018.5
20260510064730 50 284 3.5 9.6 0.00 0.00 0.00 87 1018.5
20260510064550 50 63 3.5 9.6 0.00 0.00 0.00 87 1018.5
20260510063731 50 54 2.6 8.7 0.00 0.00 0.00 87 1018.5
20260510063231 50 65 3.5 13.0 0.00 0.00 0.00 88 1018.4
20260510063041 50 53 2.6 13.0 0.00 0.00 0.00 88 1018.3
20260510062232 50 30 2.6 10.4 0.00 0.00 0.00 89 1018.4
20260510062047 50 270 2.6 8.7 0.00 0.00 0.00 89 1018.3
20260510061231 50 60 3.5 10.4 0.00 0.00 0.00 89 1018.2
20260510060730 50 307 3.5 10.4 0.00 0.00 0.00 89 1018.1
20260510060232 50 338 2.6 9.6 0.00 0.00 0.00 90 1018.1
20260510060042 50 320 3.5 9.6 0.00 0.00 0.00 90 1018.0
20260510055231 50 0 2.6 8.7 0.00 0.00 0.00 90 1018.0
20260510054731 50 20 3.5 8.7 0.00 0.00 0.00 90 1017.9
20260510054231 50 333 3.5 8.7 0.00 0.00 0.00 90 1017.9
20260510053731 50 63 2.6 8.7 0.00 0.00 0.00 91 1017.9
20260510053541 50 319 1.7 7.8 0.00 0.00 0.00 91 1017.9
20260510052731 50 19 1.7 7.8 0.00 0.00 0.00 92 1018.0
20260510052232 50 349 1.7 8.7 0.00 0.00 0.00 92 1018.0
20260510051731 49 339 2.6 8.7 0.00 0.00 0.00 92 1018.1
20260510051232 49 89 2.6 8.7 0.00 0.00 0.00 93 1018.2
20260510050859 49 336 2.6 8.7 0.00 0.00 0.00 94 1018.4
20260510045731 49 329 1.7 7.8 0.00 0.00 0.00 95 1018.4
20260510045542 49 5 1.7 5.2 0.00 0.00 0.00 95 1018.4
20260510044732 48 37 1.7 5.2 0.00 0.00 0.00 96 1018.5
20260510044232 48 340 1.7 5.2 0.00 0.00 0.00 96 1018.5
20260510043732 48 0 0.9 6.1 0.00 0.00 0.00 96 1018.4
20260510043554 48 303 1.7 6.1 0.00 0.00 0.00 96 1018.3
20260510042732 48 353 1.7 5.2 0.00 0.00 0.00 96 1018.5
20260510042233 48 52 1.7 6.1 0.00 0.00 0.00 96 1018.6
20260510041733 48 0 1.7 6.1 0.00 0.00 0.00 96 1018.4
20260510041233 48 334 1.7 5.2 0.00 0.00 0.00 96 1018.5
20260510040732 48 310 1.7 6.1 0.00 0.00 0.00 96 1018.6
20260510040232 48 292 1.7 6.1 0.00 0.00 0.00 96 1018.7
20260510040042 48 0 1.7 5.2 0.00 0.00 0.00 96 1018.6
20260510035230 48 320 1.7 6.1 0.00 0.00 0.00 96 1018.6
20260510034730 48 30 0.9 6.1 0.00 0.00 0.00 95 1018.7
20260510034230 48 202 1.7 6.1 0.00 0.00 0.00 95 1018.7
20260510034045 48 349 2.6 6.1 0.00 0.00 0.00 95 1018.7
20260510033230 48 343 1.7 6.1 0.00 0.00 0.00 95 1018.8
20260510032731 48 349 1.7 6.1 0.00 0.00 0.00 95 1018.8
20260510032540 49 20 1.7 7.0 0.00 0.00 0.00 95 1018.9
20260510031731 49 148 1.7 7.0 0.00 0.00 0.00 95 1018.8
20260510031229 49 28 1.7 7.0 0.00 0.00 0.00 95 1018.8
20260510031041 49 39 1.7 8.7 0.00 0.00 0.00 94 1018.8
20260510030228 49 8 1.7 8.7 0.00 0.00 0.00 94 1018.8
20260510025728 49 37 1.7 6.1 0.00 0.00 0.00 94 1018.8
20260510025228 49 322 1.7 7.0 0.00 0.00 0.00 94 1018.8
20260510024728 49 61 1.7 7.0 0.00 0.00 0.00 94 1018.9
20260510024228 49 62 1.7 8.7 0.00 0.00 0.00 94 1018.8
20260510023727 49 6 1.7 8.7 0.00 0.00 0.00 94 1018.8
20260510023226 49 339 1.7 7.8 0.00 0.00 0.00 94 1018.9
20260510022727 49 11 1.7 7.8 0.00 0.00 0.00 95 1019.0
20260510022227 49 350 1.7 7.8 0.00 0.00 0.00 95 1019.1
20260510021727 49 340 1.7 7.8 0.00 0.00 0.00 95 1019.0
20260510021226 49 31 1.7 7.0 0.00 0.00 0.00 95 1019.1
20260510020726 49 304 1.7 7.0 0.00 0.00 0.00 96 1019.0
20260510020226 48 321 1.7 7.0 0.00 0.00 0.00 96 1019.0
20260510015726 48 350 1.7 6.1 0.00 0.00 0.00 97 1019.0
20260510015226 48 4 1.7 5.2 0.00 0.00 0.00 97 1019.1
20260510015038 48 252 1.7 5.2 0.00 0.00 0.00 97 1019.1
20260510014226 48 336 1.7 5.2 0.00 0.00 0.00 97 1019.1
20260510013726 47 320 1.7 4.3 0.00 0.00 0.00 97 1019.1
20260510013226 47 340 0.9 4.3 0.00 0.00 0.00 97 1019.2
20260510012726 47 0 0.9 3.5 0.00 0.00 0.00 97 1019.3
20260510012544 47 0 0.9 5.2 0.00 0.00 0.00 96 1019.3
20260510012040 47 334 1.7 5.2 0.00 0.00 0.00 96 1019.4
20260510011222 47 310 1.7 5.2 0.00 0.00 0.00 96 1019.4
20260510011036 47 327 1.7 4.3 0.00 0.00 0.00 96 1019.2
20260510010223 47 327 1.7 4.3 0.00 0.00 0.00 96 1019.4
20260510005721 47 355 1.7 4.3 0.00 0.00 0.00 96 1019.4
20260510005221 47 310 1.7 4.3 0.00 0.00 0.00 96 1019.3
20260510004719 47 23 1.7 4.3 0.00 0.00 0.00 96 1019.3
20260510004219 48 337 1.7 7.0 0.00 0.00 0.00 96 1019.3
20260510003719 48 333 1.7 7.0 0.00 0.00 0.00 96 1019.3
20260510003604 48 339 1.7 5.2 0.00 0.00 0.00 95 1019.4
20260510003032 48 342 1.7 6.1 0.00 0.00 0.00 95 1019.5
20260510002215 48 317 1.7 6.1 0.00 0.00 0.00 95 1019.4
20260510001716 48 114 1.7 4.3 0.00 0.00 0.00 95 1019.6
20260510001214 48 1 0.9 4.3 0.00 0.00 0.00 95 1019.6
20260510000715 48 329 1.7 4.3 0.00 0.00 0.00 95 1019.7
20260510000213 48 55 1.7 5.2 0.00 0.00 0.00 95 1019.7
20260510000024 48 341 1.7 5.2 0.00 0.00 0.00 95 1019.7
20260509235528 48 325 0.9 3.5 0.00 0.00 0.00 95 1019.8
20260509235027 48 149 0.9 4.3 0.00 0.00 0.00 95 1019.8
20260509234212 49 340 0.9 4.3 0.00 0.00 0.00 95 1019.9
20260509233711 49 0 0.9 4.3 0.00 0.00 0.00 95 1020.0
20260509233224 49 0 0.9 4.3 0.00 0.00 0.00 94 1020.0
20260509232712 49 0 0.9 5.2 0.00 0.00 0.00 94 1019.9
20260509232213 49 281 0.9 5.2 0.00 0.00 0.00 94 1019.8
20260509231713 49 35 0.9 6.1 0.00 0.00 0.00 94 1019.7
20260509231213 49 0 0.9 6.1 0.00 0.00 0.00 94 1019.7
20260509230819 49 9 0.9 5.2 0.00 0.00 0.00 94 1019.7
20260509225812 49 40 1.7 7.8 0.00 0.00 0.00 93 1019.7
20260509224705 50 1 1.7 7.8 0.00 0.00 0.00 93 1019.5
20260509224205 50 124 2.6 7.8 0.00 0.00 0.00 93 1019.4
20260509223705 50 335 1.7 7.0 0.00 0.00 0.00 93 1019.4
20260509223206 50 320 1.7 8.7 0.00 0.00 0.00 93 1019.4
20260509222705 50 327 1.7 8.7 0.00 0.00 0.00 93 1019.4
20260509222205 50 57 1.7 8.7 0.00 0.00 0.00 93 1019.4
20260509221704 50 11 1.7 7.8 0.00 0.00 0.00 92 1019.4
20260509221515 50 0 1.7 6.1 0.00 0.00 0.00 92 1019.4
20260509220704 50 83 1.7 6.1 0.00 0.00 0.00 92 1019.5
20260509220159 50 29 1.7 6.1 0.00 0.00 0.00 92 1019.3
20260509215700 50 357 1.7 7.0 0.00 0.00 0.00 92 1019.2
20260509215200 50 40 1.7 7.0 0.00 0.00 0.00 92 1019.2
20260509214700 50 19 1.7 6.1 0.00 0.00 0.00 92 1019.2
20260509214201 50 22 1.7 6.1 0.00 0.00 0.00 92 1019.2
20260509214016 50 61 1.7 7.0 0.00 0.00 0.00 91 1019.3
20260509213202 50 41 1.7 7.0 0.00 0.00 0.00 91 1019.2
20260509212700 51 74 1.7 7.0 0.00 0.00 0.00 91 1019.2
20260509212201 51 4 1.7 7.0 0.00 0.00 0.00 91 1019.2
20260509211700 51 349 1.7 7.8 0.00 0.00 0.00 91 1019.2
20260509211159 51 64 1.7 7.8 0.00 0.00 0.00 90 1019.1
20260509210702 51 169 1.7 7.0 0.00 0.00 0.00 89 1019.1
20260509210156 51 81 1.7 7.0 0.00 0.00 0.00 89 1019.2
20260509210009 51 327 1.7 7.0 0.00 0.00 0.00 88 1019.3
20260509205640 52 134 2.6 6.1 0.00 0.00 0.00 87 1019.3